loading
|

SCOUT A R/B, 1953

Orbit data source: Space-Track

SCOUT A R/B, 1953 is space debris in LEO originally from a launch on Fri, 28 Jan 1966 UTC launched from the Air Force Western Test Range (AFWTR). Debris objects in space refer to the collection of defunct objects orbiting the Earth. Examples of debris include non-operational satellites, rocket bodies, and fragments generated from explosions, collisions, or faulty payload assembly.

Loading next visibility...
Loading greatness...
SCOUT A R/B details
Identifier
1953, 1966-005B
Orbit
LEO
Last TLE update20 hours ago
Origin
Flag of USNASA LaRC (US)
ManufacturerABL
MissionSpacecraft
Bus & MotorALTAIR, Unknown motor
Mass33 kg wet, 33 kg dry
Launch date (UTC)
1966-01-28 (59 years ago)
Launch vehicleUnknown
Launch site
Air Force Western Test Range (AFWTR)
Object type
Payload
Rocket body
Debris
Shape & HBRCyl, 1.5 m
Radar Cross Section0.687 m², Medium (>0.1 m² and < 1m²)

Expand to show TLE details & history

TLE from 20 hours ago
0 SCOUT A R/B
1 01953U 66005B   24276.71940619  .00000518  00000-0  53179-3 0  9995
2 01953  90.1614 342.9332 0226229 231.0387 127.0424 13.64860401917969
Epoch: 2024-10-02T17:15Z
Definitive object data (Epoch: 2024-10-02T17:15:56.694Z)
Latitude-0.00001°
Longitude72.03224°
Altitude1,124.236 km
Speed7.239 km/s
True Right ascension22h 51m 43s
True Declination0° 00' 00"
Sunlit
Object was in full shadow at TLE epoch
Predictive object data (real-time)
Latitude79.31309°
Longitude71.19502°
Altitude1,174.406 km
Speed7.202 km/s
Apparent Right ascension19h 40m 16s
Apparent Declination30° 04' 54"
Sunlit
Object is in daylight
Predictive observer data (real-time)
Local Sidereal Time06:51:50
Azimuth348.925° N
Elevation-19.104°
Doppler factor1
Orbital elements
Apogee1,182.363 km
Perigee847.85 km
Semi-major axis7,393.244 km
Eccentricity0.0226229
Inclination90.1614°
RAAN342.9332°
Arg. of periapsis231.0387°
True anomaly129.07651°
Mean anomaly127.0424°
Eccentric anomaly128.06294°
Mean motion3.41421 °/min
BSTAR0.00053179
Period105.44 mins
No data available

SCOUT A R/B Visibility forecast

Observer location: 39.9160978°, -105.1181434

SCOUT A R/B is not visible in the next 10 days
Span
Click to sort rows by Start time (UTC) header in descending order
Start Az.
Max El. time (UTC)
Max El. Az.
Max El.
End time (UTC)
End Az.